TKJ1ZP LTAC-LTFD

Flight info

Callsign TKJ1ZP
Flight time 0h 59m
Altitude 36000
Route UMRUN DCT TOKER UG8 YAA DCT KONEN
Aircraft B738/M-SDE2E3FGHIRWXY/LB1

Departure

Time 2026-04-16 09:58
Airport Esenboğa International Airport (LTAC)

Arrival

Time 2026-04-16 10:58
Airport Balıkesir Koca Seyit Airport (LTFD)
Time Latitude Longitude Altitude Speed Heading
2026-04-16 09:41 40.11496 32.98948 3127 ft 0 kts 131°
2026-04-16 09:49 40.11497 32.98947 3125 ft 1 kts 131°
2026-04-16 09:49 40.11507 32.98931 3125 ft 3 kts 123°
2026-04-16 09:50 40.11517 32.98908 3128 ft 3 kts 108°
2026-04-16 09:50 40.11521 32.98883 3125 ft 3 kts 83°
2026-04-16 09:50 40.11516 32.98861 3128 ft 2 kts 46°
2026-04-16 09:50 40.11512 32.98856 3128 ft 1 kts 39°
2026-04-16 09:53 40.11513 32.98857 3128 ft 1 kts 39°
2026-04-16 09:53 40.11527 32.98873 3126 ft 5 kts 39°
2026-04-16 09:54 40.11567 32.98920 3127 ft 10 kts 44°
2026-04-16 09:54 40.11619 32.98945 3125 ft 7 kts 341°
2026-04-16 09:54 40.11650 32.98904 3125 ft 6 kts 306°
2026-04-16 09:54 40.11679 32.98852 3125 ft 8 kts 306°
2026-04-16 09:55 40.11715 32.98786 3126 ft 10 kts 306°
2026-04-16 09:55 40.11760 32.98707 3126 ft 12 kts 306°
2026-04-16 09:55 40.11801 32.98633 3125 ft 9 kts 306°
2026-04-16 09:55 40.11832 32.98578 3127 ft 5 kts 306°
2026-04-16 09:56 40.11834 32.98575 3127 ft 0 kts 306°
2026-04-16 09:56 40.11834 32.98574 3127 ft 1 kts 306°
2026-04-16 09:56 40.11847 32.98552 3129 ft 5 kts 306°
2026-04-16 09:56 40.11866 32.98518 3129 ft 5 kts 307°
2026-04-16 09:57 40.11890 32.98493 3129 ft 5 kts 346°
2026-04-16 09:57 40.11920 32.98502 3129 ft 5 kts 37°
2026-04-16 09:57 40.11922 32.98504 3129 ft 0 kts 36°
2026-04-16 09:57 40.11967 32.98548 3129 ft 34 kts 36°
2026-04-16 09:58 40.12369 32.98931 3127 ft 108 kts 36°
2026-04-16 09:58 40.13149 32.99678 3144 ft 167 kts 37°
2026-04-16 09:58 40.14083 33.00609 3816 ft 173 kts 38°
2026-04-16 09:58 40.15024 33.01606 4727 ft 174 kts 40°
2026-04-16 09:59 40.15989 33.02645 5384 ft 194 kts 40°
2026-04-16 09:59 40.17115 33.03859 5648 ft 224 kts 40°
2026-04-16 09:59 40.18393 33.05227 5976 ft 247 kts 40°
2026-04-16 09:59 40.19776 33.06612 6661 ft 255 kts 28°
2026-04-16 10:00 40.21488 33.07146 7594 ft 256 kts 358°
2026-04-16 10:00 40.23227 33.06529 8288 ft 271 kts 329°
2026-04-16 10:00 40.24638 33.04821 8992 ft 282 kts 310°
2026-04-16 10:01 40.27101 33.00727 10633 ft 297 kts 308°
2026-04-16 10:01 40.28428 32.98487 10844 ft 325 kts 308°
2026-04-16 10:01 40.29853 32.96104 11176 ft 345 kts 309°
2026-04-16 10:01 40.31353 32.93619 11806 ft 348 kts 309°
2026-04-16 10:02 40.32863 32.91129 12069 ft 349 kts 309°
2026-04-16 10:02 40.34358 32.88602 12081 ft 352 kts 304°
2026-04-16 10:02 40.35334 32.85669 12099 ft 354 kts 285°
2026-04-16 10:02 40.35894 32.82523 12092 ft 354 kts 283°
2026-04-16 10:03 40.36449 32.79382 12093 ft 353 kts 284°
2026-04-16 10:03 40.37020 32.76241 12100 ft 355 kts 284°
2026-04-16 10:03 40.37561 32.73046 12610 ft 362 kts 277°
2026-04-16 10:03 40.37410 32.69769 13610 ft 362 kts 256°
2026-04-16 10:04 40.36379 32.66758 14384 ft 367 kts 236°
2026-04-16 10:04 40.34580 32.64360 15152 ft 374 kts 216°
2026-04-16 10:04 40.32245 32.62817 15869 ft 380 kts 204°
2026-04-16 10:04 40.29765 32.61551 16533 ft 386 kts 202°
2026-04-16 10:05 40.27237 32.60298 17218 ft 390 kts 204°
2026-04-16 10:05 40.24924 32.58476 17869 ft 390 kts 226°
2026-04-16 10:05 40.23304 32.55672 18568 ft 386 kts 245°
2026-04-16 10:05 40.22447 32.52419 19242 ft 382 kts 263°
2026-04-16 10:06 40.22171 32.48968 19923 ft 382 kts 267°
2026-04-16 10:06 40.21987 32.45486 20553 ft 384 kts 268°
2026-04-16 10:06 40.21820 32.41986 21161 ft 387 kts 268°
2026-04-16 10:06 40.21647 32.38466 21774 ft 389 kts 268°
2026-04-16 10:07 40.21460 32.34917 22384 ft 391 kts 268°
2026-04-16 10:07 40.21262 32.31361 22972 ft 393 kts 267°
2026-04-16 10:07 40.21055 32.27778 23577 ft 395 kts 267°
2026-04-16 10:07 40.20841 32.24184 24072 ft 398 kts 267°
2026-04-16 10:08 40.20624 32.20560 24540 ft 400 kts 267°
2026-04-16 10:08 40.20403 32.16922 25015 ft 402 kts 267°
2026-04-16 10:08 40.20180 32.13263 25451 ft 404 kts 267°
2026-04-16 10:08 40.19955 32.09591 25890 ft 407 kts 267°
2026-04-16 10:09 40.19728 32.05891 26338 ft 409 kts 266°
2026-04-16 10:09 40.19502 32.02224 26768 ft 411 kts 266°
2026-04-16 10:09 40.19270 31.98485 27173 ft 413 kts 266°
2026-04-16 10:09 40.19036 31.94730 27575 ft 415 kts 266°
2026-04-16 10:10 40.18799 31.90951 27967 ft 418 kts 266°
2026-04-16 10:10 40.18640 31.87152 28331 ft 419 kts 274°
2026-04-16 10:10 40.19002 31.83365 28683 ft 421 kts 279°
2026-04-16 10:10 40.19477 31.79578 29056 ft 423 kts 279°
2026-04-16 10:11 40.19966 31.75767 29425 ft 425 kts 279°
2026-04-16 10:11 40.20450 31.71948 29766 ft 427 kts 279°
2026-04-16 10:11 40.20925 31.68108 30183 ft 427 kts 279°
2026-04-16 10:11 40.21382 31.64330 30653 ft 424 kts 279°
2026-04-16 10:12 40.21834 31.60527 31098 ft 422 kts 279°
2026-04-16 10:12 40.22280 31.56736 31512 ft 421 kts 278°
2026-04-16 10:12 40.22722 31.52952 31903 ft 420 kts 278°
2026-04-16 10:12 40.23162 31.49170 32292 ft 420 kts 278°
2026-04-16 10:13 40.23601 31.45389 32701 ft 418 kts 278°
2026-04-16 10:13 40.24035 31.41635 33141 ft 416 kts 278°
2026-04-16 10:13 40.24466 31.37897 33542 ft 415 kts 278°
2026-04-16 10:13 40.24897 31.34156 33899 ft 415 kts 278°
2026-04-16 10:14 40.25325 31.30425 34235 ft 415 kts 278°
2026-04-16 10:14 40.25752 31.26699 34601 ft 412 kts 278°
2026-04-16 10:14 40.26175 31.22990 34915 ft 412 kts 278°
2026-04-16 10:14 40.26597 31.19281 35144 ft 413 kts 278°
2026-04-16 10:15 40.27020 31.15556 35397 ft 414 kts 278°
2026-04-16 10:15 40.27441 31.11835 35724 ft 412 kts 278°
2026-04-16 10:15 40.27859 31.08131 36031 ft 411 kts 278°
2026-04-16 10:15 40.28278 31.04405 36070 ft 416 kts 278°
2026-04-16 10:16 40.29120 30.96886 36079 ft 417 kts 278°
2026-04-16 10:16 40.29949 30.89433 36080 ft 410 kts 278°
2026-04-16 10:17 40.30767 30.82050 36091 ft 409 kts 278°
2026-04-16 10:17 40.31573 30.74731 36102 ft 408 kts 278°
2026-04-16 10:18 40.32388 30.67369 36106 ft 408 kts 277°
2026-04-16 10:18 40.33199 30.60007 36101 ft 408 kts 277°
2026-04-16 10:19 40.34006 30.52638 36109 ft 408 kts 277°
2026-04-16 10:19 40.34810 30.45254 36103 ft 409 kts 277°
2026-04-16 10:20 40.35609 30.37861 36112 ft 410 kts 277°
2026-04-16 10:20 40.36406 30.30444 36115 ft 411 kts 277°
2026-04-16 10:21 40.37197 30.23045 36111 ft 412 kts 277°
2026-04-16 10:21 40.37987 30.15596 36118 ft 412 kts 277°
2026-04-16 10:22 40.38770 30.08149 36115 ft 412 kts 277°
2026-04-16 10:22 40.39549 30.00702 36121 ft 411 kts 277°
2026-04-16 10:23 40.40191 29.94534 36108 ft 409 kts 277°
2026-04-16 10:23 40.40944 29.87151 36101 ft 410 kts 277°
2026-04-16 10:24 40.41697 29.79697 36090 ft 412 kts 276°
2026-04-16 10:24 40.42444 29.72270 36084 ft 409 kts 276°
2026-04-16 10:25 40.43181 29.64913 36084 ft 409 kts 276°
2026-04-16 10:25 40.43919 29.57487 36085 ft 410 kts 276°
2026-04-16 10:26 40.44654 29.50051 36087 ft 409 kts 276°
2026-04-16 10:26 40.45382 29.42646 36097 ft 408 kts 276°
2026-04-16 10:27 40.46100 29.35295 36099 ft 408 kts 276°
2026-04-16 10:27 40.46818 29.27890 36108 ft 409 kts 276°
2026-04-16 10:28 40.46733 29.20464 36113 ft 408 kts 261°
2026-04-16 10:28 40.45106 29.13327 36130 ft 410 kts 248°
2026-04-16 10:29 40.42792 29.06459 36126 ft 410 kts 247°
2026-04-16 10:29 40.40484 28.99690 36116 ft 407 kts 247°
2026-04-16 10:30 40.38186 28.92888 36132 ft 408 kts 247°
2026-04-16 10:30 40.35896 28.86077 36133 ft 409 kts 247°
2026-04-16 10:31 40.33598 28.79244 36130 ft 410 kts 247°
2026-04-16 10:31 40.31289 28.72391 35906 ft 415 kts 247°
2026-04-16 10:32 40.30115 28.68915 35347 ft 416 kts 247°
2026-04-16 10:32 40.28945 28.65454 34731 ft 415 kts 247°
2026-04-16 10:32 40.27777 28.62003 34061 ft 416 kts 247°
2026-04-16 10:32 40.26603 28.58540 33400 ft 415 kts 247°
2026-04-16 10:33 40.25442 28.55120 32916 ft 409 kts 247°
2026-04-16 10:33 40.24292 28.51736 32454 ft 404 kts 247°
2026-04-16 10:33 40.23153 28.48390 31972 ft 401 kts 247°
2026-04-16 10:33 40.22037 28.45114 31522 ft 397 kts 247°
2026-04-16 10:34 40.20919 28.41834 31056 ft 393 kts 247°
2026-04-16 10:34 40.19807 28.38577 30618 ft 390 kts 247°
2026-04-16 10:34 40.18703 28.35348 30178 ft 387 kts 247°
2026-04-16 10:34 40.17610 28.32150 29654 ft 383 kts 247°
2026-04-16 10:35 40.16526 28.28986 29206 ft 379 kts 247°
2026-04-16 10:35 40.15454 28.25860 28754 ft 375 kts 247°
2026-04-16 10:35 40.14395 28.22774 28310 ft 371 kts 247°
2026-04-16 10:35 40.13342 28.19710 27869 ft 367 kts 247°
2026-04-16 10:36 40.12299 28.16679 27430 ft 364 kts 247°
2026-04-16 10:36 40.11263 28.13671 26998 ft 361 kts 247°
2026-04-16 10:36 40.10237 28.10693 26556 ft 359 kts 247°
2026-04-16 10:36 40.09215 28.07731 26134 ft 356 kts 247°
2026-04-16 10:37 40.08200 28.04791 25716 ft 354 kts 246°
2026-04-16 10:37 40.07189 28.01867 25299 ft 352 kts 246°
2026-04-16 10:37 40.06183 27.98962 24886 ft 350 kts 246°
2026-04-16 10:37 40.05180 27.96066 24470 ft 349 kts 246°
2026-04-16 10:38 40.04183 27.93191 24057 ft 348 kts 246°
2026-04-16 10:38 40.03187 27.90324 23641 ft 348 kts 246°
2026-04-16 10:38 40.02185 27.87440 23156 ft 348 kts 246°
2026-04-16 10:38 40.01193 27.84588 22715 ft 352 kts 246°
2026-04-16 10:39 40.00170 27.81648 22277 ft 358 kts 246°
2026-04-16 10:39 39.99140 27.78695 21848 ft 356 kts 246°
2026-04-16 10:39 39.98114 27.75756 21399 ft 352 kts 246°
2026-04-16 10:39 39.97103 27.72862 20981 ft 349 kts 246°
2026-04-16 10:40 39.96102 27.69999 20556 ft 347 kts 246°
2026-04-16 10:40 39.95103 27.67144 20143 ft 344 kts 246°
2026-04-16 10:40 39.94124 27.64351 19734 ft 342 kts 246°
2026-04-16 10:40 39.93137 27.61536 19322 ft 340 kts 246°
2026-04-16 10:41 39.92153 27.58731 18910 ft 339 kts 246°
2026-04-16 10:41 39.91174 27.55946 18503 ft 337 kts 246°
2026-04-16 10:41 39.90197 27.53167 18045 ft 336 kts 246°
2026-04-16 10:41 39.89223 27.50401 17606 ft 335 kts 246°
2026-04-16 10:42 39.88254 27.47651 17163 ft 333 kts 246°
2026-04-16 10:42 39.87294 27.44928 16758 ft 330 kts 246°
2026-04-16 10:42 39.86339 27.42222 16353 ft 328 kts 246°
2026-04-16 10:42 39.85385 27.39521 15941 ft 326 kts 246°
2026-04-16 10:43 39.84453 27.36884 15550 ft 324 kts 246°
2026-04-16 10:43 39.83502 27.34196 15151 ft 322 kts 246°
2026-04-16 10:43 39.82576 27.31583 14760 ft 321 kts 246°
2026-04-16 10:43 39.81644 27.28959 14368 ft 320 kts 246°
2026-04-16 10:44 39.80641 27.26363 13912 ft 321 kts 241°
2026-04-16 10:44 39.79468 27.23883 13451 ft 321 kts 238°
2026-04-16 10:44 39.78262 27.21459 13052 ft 318 kts 238°
2026-04-16 10:44 39.77067 27.19058 12716 ft 313 kts 238°
2026-04-16 10:45 39.75907 27.16692 12388 ft 309 kts 239°
2026-04-16 10:45 39.74769 27.14347 12059 ft 305 kts 239°
2026-04-16 10:45 39.73647 27.12023 11716 ft 301 kts 239°
2026-04-16 10:45 39.72536 27.09722 11369 ft 299 kts 238°
2026-04-16 10:46 39.71370 27.07488 10985 ft 299 kts 235°
2026-04-16 10:46 39.70139 27.05311 10588 ft 298 kts 234°
2026-04-16 10:46 39.68917 27.03187 10440 ft 291 kts 234°
2026-04-16 10:46 39.67736 27.01131 10281 ft 283 kts 234°
2026-04-16 10:47 39.66579 26.99108 10159 ft 275 kts 234°
2026-04-16 10:47 39.65458 26.97141 10032 ft 267 kts 234°
2026-04-16 10:47 39.64355 26.95202 9739 ft 266 kts 234°
2026-04-16 10:47 39.63264 26.93280 9457 ft 264 kts 234°
2026-04-16 10:48 39.62178 26.91368 9160 ft 263 kts 234°
2026-04-16 10:48 39.61097 26.89462 8867 ft 262 kts 234°
2026-04-16 10:48 39.60019 26.87564 8578 ft 261 kts 234°
2026-04-16 10:48 39.58947 26.85677 8298 ft 259 kts 234°
2026-04-16 10:49 39.57877 26.83795 8008 ft 259 kts 234°
2026-04-16 10:49 39.56811 26.81922 7727 ft 258 kts 234°
2026-04-16 10:49 39.55745 26.80050 7442 ft 258 kts 234°
2026-04-16 10:49 39.54694 26.78205 7157 ft 258 kts 233°
2026-04-16 10:50 39.53619 26.76316 6880 ft 263 kts 233°
2026-04-16 10:50 39.52522 26.74393 6594 ft 267 kts 233°
2026-04-16 10:50 39.51412 26.72448 6286 ft 269 kts 233°
2026-04-16 10:50 39.50297 26.70502 5963 ft 269 kts 231°
2026-04-16 10:51 39.48886 26.68960 5626 ft 267 kts 204°
2026-04-16 10:51 39.47095 26.68494 5343 ft 263 kts 174°
2026-04-16 10:51 39.45357 26.69127 5053 ft 259 kts 149°
2026-04-16 10:51 39.43891 26.70405 4764 ft 250 kts 142°
2026-04-16 10:52 39.42514 26.71739 4462 ft 243 kts 138°
2026-04-16 10:52 39.41537 26.73433 4157 ft 232 kts 106°
2026-04-16 10:52 39.41559 26.75417 3976 ft 217 kts 69°
2026-04-16 10:52 39.42189 26.77113 3818 ft 202 kts 62°
2026-04-16 10:53 39.42827 26.78633 3773 ft 190 kts 61°
2026-04-16 10:53 39.43512 26.80097 3559 ft 189 kts 57°
2026-04-16 10:53 39.44249 26.81487 3311 ft 186 kts 56°
2026-04-16 10:53 39.44993 26.82827 3071 ft 181 kts 55°
2026-04-16 10:54 39.45707 26.84097 2831 ft 171 kts 55°
2026-04-16 10:54 39.46384 26.85298 2606 ft 160 kts 55°
2026-04-16 10:54 39.47061 26.86496 2435 ft 172 kts 55°
2026-04-16 10:54 39.47759 26.87728 2176 ft 165 kts 55°
2026-04-16 10:55 39.48400 26.88876 1972 ft 150 kts 55°
2026-04-16 10:55 39.48999 26.89939 1809 ft 143 kts 54°
2026-04-16 10:55 39.49586 26.90981 1643 ft 143 kts 55°
2026-04-16 10:55 39.50164 26.92005 1464 ft 139 kts 56°
2026-04-16 10:56 39.50716 26.92983 1301 ft 135 kts 56°
2026-04-16 10:56 39.51276 26.93968 1138 ft 138 kts 56°
2026-04-16 10:56 39.51850 26.94972 949 ft 138 kts 56°
2026-04-16 10:56 39.52406 26.95979 722 ft 135 kts 56°
2026-04-16 10:57 39.52962 26.96961 574 ft 137 kts 55°
2026-04-16 10:57 39.53533 26.97959 375 ft 137 kts 56°
2026-04-16 10:57 39.54077 26.98939 191 ft 131 kts 57°
2026-04-16 10:57 39.54597 26.99875 53 ft 126 kts 58°
2026-04-16 10:58 39.55032 27.00657 45 ft 78 kts 54°
2026-04-16 10:58 39.55160 27.00885 47 ft 14 kts 51°
2026-04-16 10:58 39.55161 27.00945 48 ft 5 kts 128°
2026-04-16 10:58 39.55131 27.00975 48 ft 5 kts 144°
2026-04-16 10:59 39.55100 27.01003 47 ft 5 kts 144°
2026-04-16 10:59 39.55070 27.01031 47 ft 5 kts 143°
2026-04-16 10:59 39.55041 27.01059 48 ft 5 kts 143°
2026-04-16 10:59 39.55012 27.01085 50 ft 5 kts 144°
2026-04-16 11:00 39.54982 27.01105 50 ft 5 kts 179°
2026-04-16 11:00 39.54954 27.01086 50 ft 4 kts 209°
2026-04-16 11:00 39.54929 27.01095 48 ft 4 kts 150°
2026-04-16 11:00 39.54918 27.01105 50 ft 0 kts 143°
2026-04-16 11:01 39.54917 27.01107 50 ft 1 kts 143°
2026-04-16 11:01 39.54909 27.01114 50 ft 1 kts 144°
2026-04-16 11:01 39.54904 27.01119 50 ft 1 kts 144°
2026-04-16 11:01 39.54903 27.01119 50 ft 0 kts 144°